Home   Weather   Almaty   Past weeks
Flag for Kazakhstan

Past Weather in Almaty, Kazakhstan — Yesterday and Last 2 Weeks

Now
27 °F

Low clouds.


Feels Like: 18 °F
Forecast: 27 / 15 °F
Wind: 8 mph from West

Location: Almaty Airport

Current Time: Jan 23, 2019 at 12:59:59 am

Latest Report: Jan 23, 2019 at 12:30 am


Visibility: N/A

Pressure: 30.12 "Hg (27.26 "Hg at 790m altitude)

Humidity: 93%

Dew Point: 25 °F

Location of AlmatyLocation

Past Weather in Almaty — Graph

°F

Almaty Temperature Yesterday

Maximum temperature yesterday: 30 °F (at 1:00 pm)
Minimum temperature yesterday: 27 °F (at 12:00 am)
Average temperature yesterday: 29 °F

High & Low Weather Summary for the Past Weeks

 TemperatureHumidityPressure
High41 °F (Jan 9, 2:00 am)100% (Jan 9, 7:00 pm)30.48 "Hg (Jan 9, 7:00 pm)
Low10 °F (Jan 14, 9:00 am)44% (Jan 8, 12:30 pm)29.77 "Hg (Jan 15, 2:00 pm)
Average28 °F87%30.11 "Hg
* Reported Jan 8 12:00 am — Jan 23 12:00 am, Almaty. Weather by CustomWeather, © 2019

Note: Actual official high and low records may vary slightly from our data, if they occured in-between our weather recording intervals... More about our weather records

Advertising

Almaty Weather History for the Previous 24 Hours

Scroll right to see more
 ConditionsComfort  
Time TempWeatherWind HumidityBarometerVisibility
12:00 am
Wed, Jan 23
27 °FLow clouds.6 mph93%30.12 "HgN/A
11:30 pm
Tue, Jan 22
27 °FLow clouds.8 mph93%30.12 "HgN/A
11:00 pm28 °FLow clouds.6 mph93%30.12 "HgN/A
10:30 pm28 °FIce fog.6 mph93%30.12 "Hg2 mi
10:00 pm28 °FIce fog.6 mph93%30.12 "Hg2 mi
9:30 pm28 °FIce fog.6 mph93%30.12 "Hg3 mi
9:00 pm28 °FLight snow. Ice fog.6 mph93%30.15 "Hg2 mi
8:30 pm30 °FLight snow. Ice fog.6 mph93%30.15 "Hg1 mi
8:00 pm30 °FIce fog.6 mph93%30.15 "Hg1 mi
7:30 pm30 °FIce fog.6 mph93%30.12 "Hg1 mi
7:00 pm30 °FIce fog.6 mph93%30.12 "Hg1 mi
6:30 pm30 °FLight snow. Ice fog.3 mph93%30.12 "Hg1 mi
6:00 pm30 °FLight snow. Ice fog.3 mph93%30.12 "Hg2 mi
5:30 pm30 °FLight snow. Ice fog.1 mph93%30.12 "Hg2 mi
5:00 pm30 °FLight snow. Ice fog.1 mph93%30.12 "Hg2 mi
4:30 pm30 °FLight snow. Ice fog.1 mph93%30.12 "Hg2 mi
4:00 pm30 °FLight snow. Ice fog.1 mph93%30.15 "Hg3 mi
3:30 pm30 °FLight snow. Ice fog.1 mph93%30.15 "Hg3 mi
3:00 pm30 °FLight snow. Ice fog.1 mph93%30.15 "Hg2 mi
2:30 pm30 °FLight snow. Ice fog.1 mph93%30.15 "Hg2 mi
2:00 pm30 °FLight snow. Ice fog.1 mph93%30.15 "Hg2 mi
1:30 pm30 °FLight snow. Ice fog.1 mph93%30.15 "Hg2 mi
1:00 pm30 °FLight snow. Ice fog.1 mph93%30.18 "Hg1 mi
12:30 pm28 °FLight snow. Ice fog.1 mph100%30.21 "Hg1 mi
12:00 pm28 °FLight snow. Ice fog.3 mph100%30.21 "Hg1 mi
11:30 am28 °FLight snow. Ice fog.3 mph100%30.21 "Hg1 mi
11:00 am28 °FLight snow. Ice fog.6 mph100%30.24 "Hg1 mi
10:30 am28 °FLight snow. Ice fog.3 mph100%30.24 "Hg1 mi
10:00 am28 °FLight snow. Ice fog.1 mph100%30.24 "Hg2 mi
9:30 am28 °FSnow flurries. Ice fog.1 mph93%30.24 "Hg2 mi
9:00 am28 °FIce fog.No wind93%30.24 "Hg2 mi
8:30 am28 °FIce fog.1 mph93%30.24 "Hg3 mi
8:00 am28 °FLight snow. Mostly cloudy.3 mph93%30.27 "HgN/A
7:30 am28 °FLight snow. Mostly cloudy.3 mph93%30.27 "HgN/A
6:30 am28 °FLight snow. Overcast.1 mph93%30.27 "HgN/A
6:00 am28 °FLight snow. Ice fog.1 mph93%30.27 "Hg3 mi
5:30 am28 °FLight snow. Ice fog.3 mph93%30.27 "Hg3 mi
5:00 am28 °FLight snow. Ice fog.3 mph93%30.27 "Hg3 mi
4:30 am28 °FLight snow. Ice fog.3 mph93%30.30 "Hg2 mi
4:00 am28 °FLight snow. Ice fog.3 mph93%30.30 "Hg1 mi
3:30 am28 °FIce fog.3 mph93%30.33 "Hg1 mi
3:00 am27 °FIce fog.3 mph100%30.33 "Hg0 mi
2:30 am28 °FIce fog.3 mph100%30.33 "Hg1 mi
2:00 am28 °FIce fog.3 mph100%30.33 "Hg2 mi
1:30 am28 °FIce fog.1 mph100%30.36 "Hg1 mi
1:00 am28 °FIce fog.1 mph93%30.36 "Hg1 mi
12:30 am28 °FIce fog.3 mph93%30.36 "Hg0 mi
12:00 am27 °FIce fog.1 mph100%30.36 "Hg0 mi
Weather by CustomWeather, © 2019

See weather overview